TimeEST,TemperatureF,Dew PointF,Humidity,Sea Level PressureIn,VisibilityMPH,Wind Direction,Wind SpeedMPH,Gust SpeedMPH,PrecipitationIn,Events,Conditions,WindDirDegrees,DateUTC
12:53 AM,30.0,23.0,75,30.15,8.0,WSW,15.0,-,N/A,,Overcast,240,2013-01-04 05:53:00
1:53 AM,30.0,21.9,72,30.13,10.0,WSW,19.6,25.3,N/A,,Overcast,250,2013-01-04 06:53:00
2:53 AM,30.0,21.9,72,30.13,10.0,West,19.6,29.9,N/A,,Overcast,260,2013-01-04 07:53:00
3:53 AM,28.9,21.9,75,30.12,10.0,WSW,23.0,31.1,N/A,,Overcast,250,2013-01-04 08:53:00
4:53 AM,28.9,21.9,75,30.11,10.0,WSW,28.8,36.8,N/A,,Overcast,250,2013-01-04 09:53:00
5:53 AM,28.0,21.0,75,30.09,10.0,WSW,18.4,28.8,N/A,,Mostly Cloudy,240,2013-01-04 10:53:00
6:38 AM,26.6,19.4,74,30.07,10.0,WSW,19.6,-,N/A,,Scattered Clouds,240,2013-01-04 11:38:00
6:53 AM,26.6,19.4,74,30.07,10.0,WSW,19.6,28.8,N/A,,Partly Cloudy,240,2013-01-04 11:53:00
7:41 AM,26.6,19.4,74,30.06,10.0,WSW,23.0,31.1,N/A,,Mostly Cloudy,250,2013-01-04 12:41:00
7:53 AM,28.0,21.0,75,30.10,10.0,WSW,21.9,29.9,N/A,,Overcast,250,2013-01-04 12:53:00
8:53 AM,28.0,21.0,75,30.11,10.0,West,21.9,33.4,N/A,,Overcast,260,2013-01-04 13:53:00
9:53 AM,28.0,21.9,78,30.11,10.0,WSW,18.4,28.8,N/A,,Overcast,240,2013-01-04 14:53:00
10:53 AM,30.0,23.0,75,30.10,9.0,SW,21.9,33.4,N/A,,Mostly Cloudy,230,2013-01-04 15:53:00
11:53 AM,32.0,24.1,73,30.08,10.0,WSW,26.5,32.2,N/A,,Mostly Cloudy,240,2013-01-04 16:53:00
12:53 PM,32.0,25.0,75,30.06,9.0,WSW,26.5,35.7,N/A,,Mostly Cloudy,240,2013-01-04 17:53:00
1:53 PM,32.0,25.0,75,30.05,9.0,WSW,20.7,34.5,N/A,,Overcast,250,2013-01-04 18:53:00
2:53 PM,33.1,25.0,72,30.05,9.0,WSW,20.7,29.9,N/A,,Overcast,250,2013-01-04 19:53:00
3:53 PM,33.1,26.1,75,30.06,9.0,WSW,18.4,-,N/A,,Overcast,250,2013-01-04 20:53:00
4:53 PM,33.1,24.1,70,30.09,9.0,West,18.4,25.3,N/A,,Mostly Cloudy,260,2013-01-04 21:53:00
5:32 PM,33.8,23.0,65,30.07,10.0,West,16.1,23.0,N/A,,Scattered Clouds,260,2013-01-04 22:32:00
5:53 PM,32.0,23.0,69,30.11,10.0,West,16.1,-,N/A,,Partly Cloudy,260,2013-01-04 22:53:00
6:53 PM,30.9,23.0,72,30.13,10.0,West,13.8,-,N/A,,Partly Cloudy,260,2013-01-04 23:53:00
7:53 PM,30.9,23.0,72,30.14,10.0,WSW,15.0,-,N/A,,Clear,250,2013-01-05 00:53:00
8:53 PM,30.9,23.0,72,30.15,10.0,WSW,12.7,-,N/A,,Clear,250,2013-01-05 01:53:00
9:53 PM,28.9,23.0,78,30.17,10.0,WSW,8.1,-,N/A,,Scattered Clouds,250,2013-01-05 02:53:00
10:53 PM,28.9,23.0,78,30.18,10.0,WSW,9.2,-,N/A,,Scattered Clouds,240,2013-01-05 03:53:00
11:53 PM,28.0,23.0,81,30.19,10.0,WSW,8.1,-,N/A,,Scattered Clouds,250,2013-01-05 04:53:00